Time,TemperatureF,DewpointF,PressureIn,WindDirection,WindDirectionDegrees,WindSpeedMPH,WindSpeedGustMPH,Humidity,HourlyPrecipIn,Conditions,Clouds,dailyrainin,SoftwareType,DateUTC
2013-02-06 08:29:00,61.0,60.4,29.88,ESE,112,3.2,-999.0,98,-99.99,,,0.00,Acu-Link.com,2013-02-06 14:29:00,
2013-02-06 08:44:00,61.2,60.6,29.88,ESE,112,3.2,-999.0,98,-99.99,,,0.00,Acu-Link.com,2013-02-06 14:44:00,
2013-02-06 09:00:00,61.2,60.6,29.88,ENE,67,5.3,-999.0,98,-99.99,,,0.00,Acu-Link.com,2013-02-06 15:00:00,
2013-02-06 09:15:00,61.3,60.7,29.90,ESE,112,2.2,-999.0,98,-99.99,,,0.01,Acu-Link.com,2013-02-06 15:15:00,
2013-02-06 09:30:00,61.7,61.1,29.91,East,90,0.0,-999.0,98,-99.99,,,0.01,Acu-Link.com,2013-02-06 15:30:00,
2013-02-06 09:45:00,62.2,61.6,29.90,ESE,112,3.7,-999.0,98,-99.99,,,0.01,Acu-Link.com,2013-02-06 15:45:00,
2013-02-06 10:01:00,62.4,61.8,29.89,SSE,157,2.2,-999.0,98,-99.99,,,0.01,Acu-Link.com,2013-02-06 16:01:00,
2013-02-06 10:16:00,63.9,63.3,29.89,East,90,3.7,-999.0,98,-99.99,,,0.01,Acu-Link.com,2013-02-06 16:16:00,
2013-02-06 10:31:00,64.6,64.0,29.89,SSE,157,4.2,-999.0,98,-99.99,,,0.01,Acu-Link.com,2013-02-06 16:31:00,
2013-02-06 10:46:00,64.4,63.8,29.89,ESE,112,6.8,-999.0,98,-99.99,,,0.01,Acu-Link.com,2013-02-06 16:46:00,
2013-02-06 11:01:00,64.4,63.8,29.89,ESE,112,4.2,-999.0,98,-99.99,,,0.01,Acu-Link.com,2013-02-06 17:01:00,
2013-02-06 11:16:00,64.4,63.8,29.89,East,90,1.7,-999.0,98,-99.99,,,0.01,Acu-Link.com,2013-02-06 17:16:00,
2013-02-06 11:31:00,64.0,63.4,29.88,ESE,112,1.7,-999.0,98,-99.99,,,0.03,Acu-Link.com,2013-02-06 17:31:00,
2013-02-06 11:46:00,63.7,63.1,29.86,ENE,67,5.3,-999.0,98,-99.99,,,0.05,Acu-Link.com,2013-02-06 17:46:00,
2013-02-06 12:01:00,63.5,62.9,29.87,East,90,2.7,-999.0,98,-99.99,,,0.07,Acu-Link.com,2013-02-06 18:01:00,
2013-02-06 12:17:00,64.4,63.8,29.85,ENE,67,5.3,-999.0,98,-99.99,,,0.07,Acu-Link.com,2013-02-06 18:17:00,
2013-02-06 12:32:00,65.1,64.5,29.85,ESE,112,2.7,-999.0,98,-99.99,,,0.09,Acu-Link.com,2013-02-06 18:32:00,
2013-02-06 12:47:00,65.1,64.5,29.84,SE,135,2.2,-999.0,98,-99.99,,,0.09,Acu-Link.com,2013-02-06 18:47:00,
2013-02-06 13:02:00,65.3,64.7,29.82,East,90,6.3,-999.0,98,-99.99,,,0.09,Acu-Link.com,2013-02-06 19:02:00,
2013-02-06 13:17:00,65.7,65.1,29.80,East,90,3.7,-999.0,98,-99.99,,,0.09,Acu-Link.com,2013-02-06 19:17:00,
2013-02-06 13:32:00,65.3,64.7,29.79,ESE,112,6.8,-999.0,98,-99.99,,,0.09,Acu-Link.com,2013-02-06 19:32:00,
2013-02-06 13:48:00,65.1,64.5,29.81,South,180,3.2,-999.0,98,-99.99,,,0.09,Acu-Link.com,2013-02-06 19:48:00,
2013-02-06 14:03:00,64.9,64.3,29.82,ESE,112,1.7,-999.0,98,-99.99,,,0.09,Acu-Link.com,2013-02-06 20:03:00,
2013-02-06 14:18:00,64.8,64.2,29.82,SW,225,0.0,-999.0,98,-99.99,,,0.09,Acu-Link.com,2013-02-06 20:18:00,
2013-02-06 14:33:00,64.8,64.2,29.81,NE,45,1.7,-999.0,98,-99.99,,,0.15,Acu-Link.com,2013-02-06 20:33:00,
2013-02-06 14:48:00,64.6,64.0,29.82,East,90,2.2,-999.0,98,-99.99,,,0.18,Acu-Link.com,2013-02-06 20:48:00,
2013-02-06 15:03:00,64.2,63.6,29.83,ESE,112,2.2,-999.0,98,-99.99,,,0.21,Acu-Link.com,2013-02-06 21:03:00,
2013-02-06 15:18:00,64.0,63.4,29.83,ESE,112,2.2,-999.0,98,-99.99,,,0.25,Acu-Link.com,2013-02-06 21:18:00,
2013-02-06 15:33:00,63.9,63.3,29.81,ENE,67,5.8,-999.0,98,-99.99,,,0.38,Acu-Link.com,2013-02-06 21:33:00,
2013-02-06 15:49:00,63.7,63.1,29.78,ESE,112,1.7,-999.0,98,-99.99,,,0.47,Acu-Link.com,2013-02-06 21:49:00,
2013-02-06 16:04:00,63.3,62.7,29.78,ESE,112,6.3,-999.0,98,-99.99,,,0.55,Acu-Link.com,2013-02-06 22:04:00,
2013-02-06 16:19:00,63.1,62.5,29.76,NE,45,6.3,-999.0,98,-99.99,,,0.61,Acu-Link.com,2013-02-06 22:19:00,
2013-02-06 16:34:00,63.1,62.5,29.77,ESE,112,4.7,-999.0,98,-99.99,,,0.66,Acu-Link.com,2013-02-06 22:34:00,
2013-02-06 16:49:00,62.8,62.2,29.75,ESE,112,3.2,-999.0,98,-99.99,,,0.76,Acu-Link.com,2013-02-06 22:49:00,
2013-02-06 17:04:00,62.6,62.0,29.77,SE,135,2.7,-999.0,98,-99.99,,,0.80,Acu-Link.com,2013-02-06 23:04:00,
2013-02-06 17:19:00,62.8,62.2,29.75,ESE,112,6.8,-999.0,98,-99.99,,,0.85,Acu-Link.com,2013-02-06 23:19:00,
2013-02-06 17:35:00,63.0,62.4,29.74,ESE,112,6.8,-999.0,98,-99.99,,,0.95,Acu-Link.com,2013-02-06 23:35:00,
2013-02-06 17:50:00,62.6,62.0,29.73,ESE,112,6.8,-999.0,98,-99.99,,,0.96,Acu-Link.com,2013-02-06 23:50:00,
2013-02-06 18:05:00,62.6,62.0,29.73,ESE,112,3.7,-999.0,98,-99.99,,,0.96,Acu-Link.com,2013-02-07 00:05:00,
2013-02-06 18:20:00,62.6,62.0,29.71,South,180,5.8,-999.0,98,-99.99,,,0.97,Acu-Link.com,2013-02-07 00:20:00,
2013-02-06 18:35:00,62.8,62.2,29.70,ESE,112,12.5,-999.0,98,-99.99,,,0.97,Acu-Link.com,2013-02-07 00:35:00,
2013-02-06 18:50:00,62.8,62.2,29.71,NE,45,7.3,-999.0,98,-99.99,,,0.97,Acu-Link.com,2013-02-07 00:50:00,
2013-02-06 19:05:00,62.8,62.2,29.73,NE,45,10.9,-999.0,98,-99.99,,,0.98,Acu-Link.com,2013-02-07 01:05:00,
2013-02-06 19:20:00,62.6,62.0,29.72,ESE,112,9.4,-999.0,98,-99.99,,,0.98,Acu-Link.com,2013-02-07 01:20:00,
2013-02-06 19:35:00,62.6,62.0,29.74,SSW,202,9.4,-999.0,98,-99.99,,,0.98,Acu-Link.com,2013-02-07 01:35:00,
2013-02-06 19:51:00,62.2,61.6,29.75,ESE,112,4.2,-999.0,98,-99.99,,,0.98,Acu-Link.com,2013-02-07 01:51:00,
2013-02-06 20:06:00,62.1,61.5,29.75,East,90,1.7,-999.0,98,-99.99,,,0.98,Acu-Link.com,2013-02-07 02:06:00,
2013-02-06 20:21:00,61.9,61.3,29.77,ESE,112,2.7,-999.0,98,-99.99,,,0.98,Acu-Link.com,2013-02-07 02:21:00,
2013-02-06 20:36:00,61.7,61.1,29.78,East,90,4.2,-999.0,98,-99.99,,,0.98,Acu-Link.com,2013-02-07 02:36:00,
2013-02-06 20:51:00,61.5,60.9,29.77,East,90,4.2,-999.0,98,-99.99,,,0.98,Acu-Link.com,2013-02-07 02:51:00,
2013-02-06 21:06:00,61.5,60.9,29.77,East,90,4.2,-999.0,98,-99.99,,,0.98,Acu-Link.com,2013-02-07 03:06:00,
2013-02-06 21:21:00,61.7,61.1,29.77,ESE,112,1.7,-999.0,98,-99.99,,,0.98,Acu-Link.com,2013-02-07 03:21:00,
2013-02-06 21:36:00,61.7,61.1,29.77,East,90,2.2,-999.0,98,-99.99,,,0.98,Acu-Link.com,2013-02-07 03:36:00,
2013-02-06 21:51:00,61.5,60.9,29.77,NE,45,5.3,-999.0,98,-99.99,,,0.98,Acu-Link.com,2013-02-07 03:51:00,
2013-02-06 22:07:00,61.7,61.1,29.77,East,90,4.7,-999.0,98,-99.99,,,0.98,Acu-Link.com,2013-02-07 04:07:00,
2013-02-06 22:22:00,61.7,61.1,29.77,ENE,67,4.7,-999.0,98,-99.99,,,0.98,Acu-Link.com,2013-02-07 04:22:00,
2013-02-06 22:41:00,61.7,61.1,29.76,East,90,4.7,-999.0,98,-99.99,,,0.98,Acu-Link.com,2013-02-07 04:41:00,
2013-02-06 23:02:00,61.7,61.1,29.76,NE,45,2.7,-999.0,98,-99.99,,,0.98,Acu-Link.com,2013-02-07 05:02:00,
2013-02-06 23:40:00,61.9,61.3,29.76,East,90,2.2,-999.0,98,-99.99,,,0.98,Acu-Link.com,2013-02-07 05:40:00,